| time (UTC) | temp F | wind direction | speed MPH | gust MPH | rain 1hr in | rain 24hr in | rain mn in | humidity % | barometer mb |
| 20260506140104 | 55 | 0 | 0.0 | 2.0 | 0.00 | 0.00 | 0.00 | 88 | 1020.4 |
| 20260506134553 | 55 | 0 | 0.0 | 0.0 | 0.00 | 0.00 | 0.00 | 89 | 1020.3 |
| 20260506133058 | 55 | 0 | 0.0 | 1.0 | 0.00 | 0.00 | 0.00 | 89 | 1020.3 |
| 20260506131600 | 55 | 0 | 0.0 | 0.0 | 0.00 | 0.00 | 0.00 | 89 | 1020.2 |
| 20260506130118 | 55 | 0 | 0.0 | 0.0 | 0.00 | 0.00 | 0.00 | 89 | 1020.1 |
| 20260506124553 | 55 | 250 | 1.0 | 2.0 | 0.00 | 0.00 | 0.00 | 88 | 1020.0 |
| 20260506123054 | 55 | 0 | 0.0 | 2.0 | 0.00 | 0.00 | 0.00 | 88 | 1019.9 |
| 20260506121553 | 55 | 0 | 0.0 | 2.0 | 0.00 | 0.00 | 0.00 | 88 | 1019.9 |
| 20260506120052 | 55 | 0 | 0.0 | 2.0 | 0.00 | 0.00 | 0.00 | 88 | 1019.8 |
| 20260506114555 | 55 | 233 | 0.0 | 3.0 | 0.00 | 0.00 | 0.00 | 88 | 1019.6 |
| 20260506113104 | 55 | 0 | 0.0 | 3.0 | 0.00 | 0.00 | 0.00 | 88 | 1019.6 |
| 20260506111555 | 55 | 236 | 1.0 | 3.0 | 0.00 | 0.00 | 0.00 | 88 | 1019.6 |
| 20260506104614 | 55 | 230 | 0.0 | 4.0 | 0.00 | 0.00 | 0.00 | 88 | 1019.4 |
| 20260506103056 | 55 | 186 | 1.0 | 6.0 | 0.00 | 0.00 | 0.00 | 88 | 1019.2 |
| 20260506101603 | 55 | 167 | 0.0 | 4.0 | 0.00 | 0.00 | 0.00 | 87 | 1019.1 |
| 20260506100057 | 55 | 207 | 1.0 | 4.0 | 0.00 | 0.00 | 0.00 | 87 | 1019.1 |
| 20260506094559 | 55 | 227 | 0.0 | 3.0 | 0.00 | 0.02 | 0.00 | 87 | 1019.0 |
| 20260506093105 | 55 | 0 | 1.0 | 5.0 | 0.00 | 0.02 | 0.00 | 87 | 1019.0 |
| 20260506091558 | 55 | 238 | 1.0 | 5.0 | 0.00 | 0.02 | 0.00 | 87 | 1019.1 |
| 20260506090103 | 55 | 161 | 0.0 | 3.0 | 0.00 | 0.02 | 0.00 | 87 | 1019.2 |
| 20260506084556 | 55 | 0 | 1.0 | 3.0 | 0.00 | 0.07 | 0.00 | 87 | 1019.2 |
| 20260506083054 | 55 | 147 | 0.0 | 2.0 | 0.00 | 0.07 | 0.00 | 87 | 1019.3 |
| 20260506081552 | 55 | 194 | 0.0 | 4.0 | 0.00 | 0.07 | 0.00 | 87 | 1019.2 |
| 20260506073102 | 55 | 0 | 1.0 | 4.0 | 0.00 | 0.07 | 0.00 | 87 | 1018.7 |
| 20260506071609 | 56 | 0 | 1.0 | 5.0 | 0.00 | 0.07 | 0.00 | 87 | 1018.5 |
| 20260506070103 | 56 | 214 | 1.0 | 4.0 | 0.00 | 0.07 | 0.00 | 87 | 1018.4 |
| 20260506044601 | 56 | 140 | 2.0 | 7.0 | 0.00 | 0.20 | 0.07 | 86 | 1017.7 |
| 20260506043054 | 56 | 204 | 1.0 | 8.0 | 0.00 | 0.20 | 0.07 | 85 | 1017.4 |
| 20260506041605 | 57 | 181 | 1.0 | 6.0 | 0.00 | 0.20 | 0.07 | 85 | 1017.2 |
| 20260506040055 | 57 | 213 | 2.0 | 6.0 | 0.00 | 0.20 | 0.07 | 84 | 1017.1 |
| 20260506034556 | 57 | 248 | 2.0 | 13.0 | 0.00 | 0.21 | 0.07 | 83 | 1016.9 |
| 20260506033110 | 58 | 217 | 4.0 | 11.0 | 0.00 | 0.21 | 0.07 | 81 | 1016.5 |
| 20260506031558 | 59 | 229 | 2.0 | 10.0 | 0.00 | 0.21 | 0.07 | 79 | 1016.1 |
| 20260506030053 | 59 | 217 | 3.0 | 8.0 | 0.00 | 0.21 | 0.07 | 78 | 1016.0 |
| 20260506024555 | 60 | 163 | 2.0 | 7.0 | 0.00 | 0.28 | 0.07 | 76 | 1015.9 |
| 20260506023100 | 60 | 215 | 1.0 | 7.0 | 0.00 | 0.28 | 0.07 | 75 | 1015.9 |
| 20260506021557 | 61 | 209 | 2.0 | 7.0 | 0.00 | 0.28 | 0.07 | 74 | 1015.7 |
| 20260506020051 | 62 | 232 | 3.0 | 7.0 | 0.00 | 0.28 | 0.07 | 74 | 1015.5 |
| 20260506014557 | 62 | 258 | 3.0 | 8.0 | 0.00 | 0.35 | 0.07 | 72 | 1015.4 |
| 20260506013053 | 63 | 240 | 5.0 | 9.0 | 0.00 | 0.35 | 0.07 | 70 | 1015.4 |
| 20260506011552 | 64 | 223 | 3.0 | 9.0 | 0.00 | 0.35 | 0.07 | 70 | 1015.2 |
| 20260506010054 | 64 | 248 | 5.0 | 10.0 | 0.00 | 0.35 | 0.07 | 71 | 1015.2 |
| 20260506004558 | 63 | 265 | 4.0 | 10.0 | 0.00 | 0.39 | 0.07 | 71 | 1015.3 |
| 20260506003053 | 65 | 239 | 4.0 | 10.0 | 0.00 | 0.39 | 0.07 | 70 | 1015.2 |
| 20260506001614 | 65 | 240 | 4.0 | 12.0 | 0.00 | 0.39 | 0.07 | 69 | 1015.0 |
| 20260505234556 | 64 | 289 | 3.0 | 10.0 | 0.00 | 0.43 | 0.07 | 71 | 1015.0 |
| 20260505233057 | 64 | 268 | 3.0 | 12.0 | 0.00 | 0.43 | 0.07 | 72 | 1014.9 |
| 20260505231557 | 64 | 242 | 3.0 | 9.0 | 0.00 | 0.43 | 0.07 | 72 | 1015.0 |
| 20260505230113 | 65 | 217 | 4.0 | 10.0 | 0.00 | 0.43 | 0.07 | 72 | 1014.9 |
| 20260505224555 | 65 | 215 | 3.0 | 10.0 | 0.00 | 0.50 | 0.07 | 72 | 1014.9 |
| 20260505223059 | 65 | 234 | 4.0 | 9.0 | 0.00 | 0.50 | 0.07 | 71 | 1015.0 |
| 20260505221558 | 66 | 240 | 3.0 | 7.0 | 0.00 | 0.50 | 0.07 | 71 | 1015.1 |
| 20260505220100 | 66 | 261 | 0.0 | 7.0 | 0.00 | 0.50 | 0.07 | 70 | 1015.1 |
| 20260505214608 | 65 | 268 | 2.0 | 8.0 | 0.00 | 0.50 | 0.07 | 72 | 1015.3 |
| 20260505213102 | 64 | 299 | 3.0 | 8.0 | 0.00 | 0.50 | 0.07 | 71 | 1015.4 |
| 20260505211631 | 64 | 300 | 3.0 | 8.0 | 0.00 | 0.50 | 0.07 | 72 | 1015.5 |
| 20260505210109 | 64 | 195 | 2.0 | 7.0 | 0.00 | 0.50 | 0.07 | 73 | 1015.5 |
| 20260505204603 | 64 | 279 | 3.0 | 10.0 | 0.00 | 0.50 | 0.07 | 74 | 1015.5 |
| 20260505203056 | 63 | 246 | 0.0 | 8.0 | 0.00 | 0.50 | 0.07 | 73 | 1015.5 |
| 20260505201608 | 63 | 273 | 1.0 | 6.0 | 0.00 | 0.50 | 0.07 | 74 | 1015.5 |
| 20260505194558 | 63 | 300 | 4.0 | 9.0 | 0.00 | 0.50 | 0.07 | 72 | 1015.4 |
| 20260505193057 | 65 | 313 | 2.0 | 6.0 | 0.00 | 0.50 | 0.07 | 69 | 1015.5 |
| 20260505191605 | 64 | 269 | 1.0 | 7.0 | 0.00 | 0.50 | 0.07 | 72 | 1015.7 |
| 20260505190118 | 62 | 262 | 3.0 | 9.0 | 0.00 | 0.50 | 0.07 | 73 | 1015.7 |
| 20260505184607 | 63 | 344 | 2.0 | 6.0 | 0.00 | 0.50 | 0.07 | 73 | 1015.7 |
| 20260505183057 | 63 | 0 | 3.0 | 6.0 | 0.00 | 0.50 | 0.07 | 72 | 1015.8 |
| 20260505181559 | 62 | 344 | 0.0 | 4.0 | 0.00 | 0.50 | 0.07 | 75 | 1015.7 |
| 20260505180058 | 61 | 295 | 2.0 | 7.0 | 0.00 | 0.50 | 0.07 | 75 | 1015.8 |
| 20260505174559 | 61 | 249 | 2.0 | 7.0 | 0.00 | 0.50 | 0.07 | 76 | 1015.6 |
| 20260505173100 | 61 | 351 | 0.0 | 2.0 | 0.00 | 0.50 | 0.07 | 75 | 1015.5 |
| 20260505171559 | 61 | 277 | 0.0 | 3.0 | 0.00 | 0.50 | 0.07 | 76 | 1015.5 |
| 20260505170104 | 59 | 0 | 1.0 | 4.0 | 0.00 | 0.50 | 0.07 | 79 | 1015.5 |
| 20260505164729 | 59 | 0 | 0.0 | 3.0 | 0.00 | 0.50 | 0.07 | 81 | 1015.6 |
| 20260505164609 | 59 | 0 | 0.0 | 3.0 | 0.00 | 0.50 | 0.07 | 81 | 1015.6 |
| 20260505163105 | 58 | 284 | 2.0 | 4.0 | 0.00 | 0.50 | 0.07 | 83 | 1015.5 |
| 20260505161600 | 57 | 346 | 2.0 | 4.0 | 0.00 | 0.50 | 0.07 | 86 | 1015.4 |
| 20260505153108 | 55 | 198 | 0.0 | 3.0 | 0.00 | 0.50 | 0.07 | 94 | 1015.2 |
| 20260505151556 | 54 | 267 | 0.0 | 2.0 | 0.00 | 0.50 | 0.07 | 95 | 1015.0 |
| 20260505150113 | 53 | 0 | 1.0 | 2.0 | 0.00 | 0.50 | 0.07 | 95 | 1015.1 |